Location: Wyalusing
(42.9440°N, 91.1410°W)
Time: 21:13:36
(UTC-05:00)

ISS - Visible Passes

Search period start: 16 July 2018 00:00
Search period end: 26 July 2018 00:00
Orbit: 402 x 408 km, 51.6° (Epoch: 17 July)

Date Brightness Start Highest point End Pass type
(mag) Time Alt. Az. Time Alt. Az. Time Alt. Az.
16 Jul -1.6 01:42:24 24° NNW 01:42:47 24° NNW 01:45:34 10° NE visible
16 Jul -0.9 03:17:43 10° NW 03:20:05 18° N 03:22:27 10° NE visible
16 Jul -2.0 04:54:10 10° NW 04:57:15 36° NNE 05:00:20 10° E visible
17 Jul -1.6 00:51:38 25° NNE 00:51:38 25° NNE 00:53:33 10° NE visible
17 Jul -0.9 02:25:24 10° NW 02:27:44 18° N 02:30:05 10° NE visible
17 Jul -1.4 04:02:10 10° NW 04:05:01 26° NNE 04:07:52 10° ENE visible
18 Jul -1.4 00:00:29 18° NE 00:00:29 18° NE 00:01:33 10° NE visible
18 Jul -1.0 01:33:04 11° NW 01:35:23 19° N 01:37:51 10° NE visible
18 Jul -1.1 03:10:07 10° NW 03:12:44 21° NNE 03:15:19 10° ENE visible
18 Jul -3.4 04:46:22 10° NW 04:49:39 69° NNE 04:52:56 10° ESE visible
18 Jul -1.9 21:28:45 10° SSE 21:30:09 12° SE 21:30:46 12° ESE visible
18 Jul -3.1 23:02:56 10° WSW 23:07:05 45° NE 23:09:30 10° NE visible
19 Jul -1.3 00:40:23 10° WNW 00:43:03 22° NNW 00:45:45 10° NE visible
19 Jul -0.9 02:17:58 10° NW 02:20:22 18° N 02:22:47 10° NE visible
19 Jul -2.4 03:54:20 10° NW 03:57:29 41° NNE 04:00:38 10° E visible
19 Jul -3.8 22:10:56 10° SW 22:14:08 52° SE 22:17:20 10° ENE visible
19 Jul -1.7 23:47:50 10° W 23:50:45 29° NNW 23:53:41 10° NE visible
20 Jul -0.8 01:25:40 10° NW 01:28:00 18° N 01:30:20 10° NE visible
20 Jul -1.7 03:02:18 10° NW 03:05:14 29° NNE 03:08:10 10° E visible
20 Jul -3.7 04:38:39 10° WNW 04:41:53 52° SW 04:45:05 10° SE visible
20 Jul -2.9 21:19:16 10° SSW 21:22:07 28° SE 21:24:58 10° ENE visible
20 Jul -2.5 22:55:22 10° W 22:58:29 41° NNW 23:01:39 10° NE visible
21 Jul -0.9 00:33:13 10° NW 00:35:37 18° N 00:38:01 10° NE visible
21 Jul -1.3 02:10:14 10° NW 02:12:55 22° NNE 02:15:37 10° ENE visible
21 Jul -3.9 03:46:28 10° NW 03:49:46 84° NNE 03:53:04 10° ESE visible
21 Jul -3.5 22:03:03 10° WSW 22:06:17 68° NNW 22:09:35 10° NE visible
21 Jul -1.1 23:40:39 10° WNW 23:43:14 21° NNW 23:45:49 10° NE visible
22 Jul -1.0 01:18:06 10° NW 01:20:34 19° N 01:23:01 10° ENE visible
22 Jul -2.9 02:54:23 10° NW 02:57:36 49° NNE 03:00:49 10° ESE visible
22 Jul -2.6 04:31:16 10° W 04:33:54 22° SW 04:36:32 10° S visible
22 Jul -3.9 21:10:55 10° SW 21:14:09 67° SE 21:17:25 10° ENE visible
22 Jul -1.5 22:48:03 10° WNW 22:50:52 26° NNW 22:53:42 10° NE visible
23 Jul -0.9 00:25:49 10° NW 00:28:09 18° N 00:30:29 10° NE visible
23 Jul -1.2 02:02:19 10° NW 02:03:21 17° NNW 02:03:21 17° NNW visible
23 Jul -2.1 21:55:30 10° W 21:58:33 35° NNW 22:01:38 10° NE visible
23 Jul -0.9 23:33:22 10° NW 23:35:43 18° N 23:38:04 10° NE visible
24 Jul -1.2 01:10:14 10° NW 01:11:59 21° NNW 01:11:59 21° NNW visible
24 Jul -3.0 21:03:04 10° WSW 21:06:17 56° NNW 21:09:32 10° NE visible
24 Jul -1.0 22:40:48 10° WNW 22:43:17 20° N 22:45:48 10° NE visible
25 Jul -1.3 00:18:05 10° NW 00:20:36 20° N 00:21:03 20° NNE visible
25 Jul -1.3 21:48:09 10° WNW 21:50:52 24° NNW 21:53:36 10° NE visible
25 Jul -1.0 23:25:49 10° NW 23:28:10 18° N 23:30:16 11° NE visible
